Colwood, British Columbia

6:01 AM PST on February 22, 2017 (GMT -0800)
Esquimalt Harbour

Weather History for CWPF - January, 2013

Change the Weather History Date:

Tuesday, January 8, 2013

  Actual Average (CYWH) Record (CYWH)
Temperature  
Mean Temperature 42 °F -  
Max Temperature 46 °F 44 °F 55 °F (2003)
Min Temperature 40 °F 38 °F 32 °F (1998)
Degree Days  
Heating Degree Days 22    
Moisture  
Dew Point -    
Average Humidity    
Maximum Humidity    
Minimum Humidity    
Precipitation  
Precipitation 2.02 in - - ()
Sea Level Pressure  
Sea Level Pressure 29.89 in    
Wind  
Wind Speed 4 mph ()    
Max Wind Speed 17 mph    
Max Gust Speed 26 mph    
Averages and records for this station are not official NWS values.
T = Trace of Precipitation, MM = Missing Value Source: Averaged Metar Reports

Daily Weather History Graph

Daily Weather History Graph

Search for Another Location

Airport or City:

Trip Planner

Search our weather history database for the weather conditions in past years. The results will help you decide how hot, cold, wet, or windy it might be!

Date:

Astronomy

Jan. 08, 2013 Rise Set
Actual Time 8:03 AM PST 4:37 PM PST
Civil Twilight 7:27 AM PST 5:13 PM PST
Nautical Twilight 6:48 AM PST 5:53 PM PST
Astronomical Twilight 6:10 AM PST 6:30 PM PST
Moon 4:41 AM PST (1/8) 1:45 PM PST (1/8)
Length of Visible Light 9h 46m
Length of Day
8h 34m
Waning Crescent, 13% of the Moon is Illuminated
Jan 8
Waning Crescent
Jan 11
New
Jan 18
First Quarter
Jan 26
Full
Feb 3
Last Quarter

Hourly Weather History & Observations

Time (PST) Temp. Windchill Dew Point Humidity Pressure Visibility Wind Dir Wind Speed Gust Speed Precip Events Conditions
12:00 AM 44.6 °F 42.2 °F - N/A% 30.12 in - West 4.6 mph - N/A   Unknown
1:00 AM 44.8 °F 42.4 °F - N/A% 30.12 in - West 4.6 mph - N/A   Unknown
2:00 AM 45.1 °F 42.0 °F - N/A% 30.12 in - West 5.8 mph - N/A   Unknown
3:00 AM 44.4 °F - - N/A% 30.12 in - SW 1.2 mph - N/A   Unknown
4:00 AM 42.1 °F - - N/A% 30.11 in - NE 2.3 mph - N/A   Unknown
5:00 AM 41.5 °F 39.6 °F - N/A% 30.09 in - NNE 3.5 mph - N/A   Unknown
6:00 AM 41.2 °F 38.2 °F - N/A% 30.06 in - North 4.6 mph - N/A   Unknown
7:00 AM 41.4 °F 39.4 °F - N/A% 30.02 in - NE 3.5 mph - 0.01 in   Unknown
8:00 AM 42.3 °F 40.5 °F - N/A% 30.00 in - East 3.5 mph - 0.05 in   Unknown
9:00 AM 41.2 °F 38.2 °F - N/A% 29.98 in - East 4.6 mph - 0.05 in   Unknown
10:00 AM 41.0 °F 39.0 °F - N/A% 29.95 in - East 3.5 mph - 0.10 in   Unknown
11:00 AM 40.6 °F 36.7 °F - N/A% 29.91 in - East 5.8 mph - 0.19 in   Unknown
12:00 PM 41.0 °F 37.1 °F - N/A% 29.87 in - ESE 5.8 mph - 0.22 in   Unknown
1:00 PM 41.0 °F - - N/A% 29.83 in - ESE 2.3 mph - 0.16 in   Unknown
2:00 PM 41.9 °F 40.0 °F - N/A% 29.79 in - ESE 3.5 mph - 0.09 in   Unknown
3:00 PM 42.1 °F 40.2 °F - N/A% 29.73 in - SE 3.5 mph - 0.02 in   Unknown
4:00 PM 42.1 °F - - N/A% 29.70 in - SSW 1.2 mph - 0.03 in   Unknown
5:00 PM 41.7 °F 38.0 °F - N/A% 29.68 in - NNE 5.8 mph - 0.13 in   Unknown
6:00 PM 41.7 °F 38.8 °F - N/A% 29.64 in - NNE 4.6 mph - 0.07 in   Unknown
8:00 PM 42.8 °F - - N/A% 29.63 in - West 2.3 mph - 0.16 in   Unknown
9:00 PM 43.9 °F 41.3 °F - N/A% 29.63 in - SW 4.6 mph - 0.21 in   Unknown
10:00 PM 44.6 °F 40.7 °F - N/A% 29.63 in - SW 6.9 mph - 0.24 in   Unknown
11:00 PM 46.0 °F 39.0 °F - N/A% 29.65 in - West 17.3 mph 26.5 mph 0.29 in   Unknown